Location: Northcutt
(34.7304°N, 84.4305°W)
Time: 20:20:50
(UTC+00:00)

Transit 2A Rocket - Pass Details

Date: 09 October 2022
Orbit: 589 x 911 km, 66.7° (Epoch: 03 December)

Event Time Altitude Azimuth Distance (km) Brightness Sun altitude
Rises 18:13:32 0° 342° (NNW) 3,060 7.8 47.2°
Reaches altitude 10° 18:15:57 10° 351° (N) 2,191 7.1 47.1°
Maximum altitude 18:20:35 37° 59° (ENE) 1,160 6.0 46.8°
Drops below altitude 10° 18:25:38 10° 126° (SE) 2,382 7.8 46.4°
Sets 18:28:20 0° 134° (SE) 3,362 8.5 46.2°
